Regional Weather Roundup
Issued by NWS

Home | Current Version | Previous Version | Text Only | Print | Product List | Glossary On
Versions: 1 2 3 4 5 6 7 8 9 10 11 12 13 14 15 16 17 18 19 20 21 22 23 24 25 26 27 28 29 30 31 32 33 34 35 36 37 38 39 40 41 42 43 44 45 46 47 48 49 50
000
ASUS45 KREV 210010
RWRNV
NEVADA REGIONAL WEATHER ROUNDUP
NATIONAL WEATHER SERVICE RENO NV
500 PM PDT WED AUG 20 2014

NOTE: "FAIR" INDICATES FEW OR NO CLOUDS BELOW 12,000 FEET WITH NO
SIGNIFICANT WEATHER AND/OR OBSTRUCTIONS TO VISIBILITY.

NVZ001-003-004-210100-
WESTERN NEVADA

CITY           SKY/WX    TMP DP  RH WIND       PRES   REMARKS
RENO           MOSUNNY   88  25  10 W18G29    29.89S
6HR MIN TEMP:  77; 6HR MAX TEMP:  92;

CARSON CITY    FAIR      84  34  16 W21G31    29.93S
MINDEN         FAIR      82  39  21 W21G31    29.95
SLIDE MTN        N/A     63  37  39 W20         N/A
FALLON         PTSUNNY   90  32  12 W7        29.83F
6HR MIN TEMP:  83; 6HR MAX TEMP:  93;

LOVELOCK       SUNNY     92  31  11 W16G22    29.83F
6HR MIN TEMP:  83; 6HR MAX TEMP:  93;

HAWTHORNE      SUNNY     90  28  11 CALM      29.86S
$$

NVZ002-CAZ072-073-210100-
NORTHERN AND CENTRAL SIERRA

CITY           SKY/WX    TMP DP  RH WIND       PRES   REMARKS
S. LAKE TAHOE  SUNNY     76  41  28 S21G32    30.08R
6HR MIN TEMP:  74; 6HR MAX TEMP:  81;

TRUCKEE        MOSUNNY   75  37  25 W14G21    30.07R
                   6HR MAX TEMP:  81;

SQUAW VLY 8000   N/A     63  37  39 VRB22       N/A
BLUE CANYON    SUNNY     70  39  32 S10       30.08F
MAMMOTH LAKES  FAIR      77  37  24 W21G28    30.10S
BRIDGEPORT     CLOUDY    72  41  32 SW10G20   30.07F
$$

NVZ030-031-036-210100-
NORTHERN NEVADA

CITY           SKY/WX    TMP DP  RH WIND       PRES   REMARKS
ELKO           PTSUNNY   80  33  18 W15G28    29.93R
6HR MIN TEMP:  78; 6HR MAX TEMP:  86;

WINNEMUCCA     MOSUNNY   88  34  14 W15G23    29.85F
6HR MIN TEMP:  81; 6HR MAX TEMP:  90;

WENDOVER       CLOUDY    81  43  26 S12       29.89F
$$

NVZ035-037-210100-
CENTRAL NEVADA

CITY           SKY/WX    TMP DP  RH WIND       PRES   REMARKS
ELY            MOSUNNY   74  44  34 SW24G31   30.06R
6HR MIN TEMP:  70; 6HR MAX TEMP:  78;

EUREKA           N/A     76  36  23 S16       30.00R
6HR MIN TEMP:  65; 6HR MAX TEMP:  81; 6HR PCP:  0.11;

$$

NVZ013-014-210100-
SOUTH CENTRAL NEVADA

CITY           SKY/WX    TMP DP  RH WIND       PRES   REMARKS
TONOPAH        SUNNY     83  25  12 S21       30.01F
6HR MIN TEMP:  76; 6HR MAX TEMP:  83;

$$

NVZ017-020-022-210100-
SOUTHERN NEVADA

CITY           SKY/WX    TMP DP  RH WIND       PRES   REMARKS
LAS VEGAS      PTSUNNY   90  49  24 S14G24    29.82S THUNDER
6HR MIN TEMP:  87; 6HR MAX TEMP:  96;

N. LAS VEGAS   MOSUNNY   89  45  21 S18       29.84F
6HR MIN TEMP:  84; 6HR MAX TEMP:  95;

NELLIS AFB     MOSUNNY   92  47  21 S13       29.83S
6HR MIN TEMP:  86; 6HR MAX TEMP:  94;

HENDERSON      LGT RAIN  81  55  40 SE25G33   29.87F
6HR MIN TEMP:  76; 6HR MAX TEMP:  94; 6HR PCP:  0.15;

MERCURY        SUNNY     88  33  14 SW17G26   29.93S
6HR MIN TEMP:  84; 6HR MAX TEMP:  91;

$$



USA.gov is the U.S. government's official web portal to all federal, state and local government web resources and services.